This is the latest recevied weather packets stored in our database for station/object HS5AU-13. If no packets are shown the sender has not sent any weather packets the latest 10 day(s).
| Time | Temp. | Humidity | Pressure | Rain* | Wind** | Luminosity | Snow |
|---|---|---|---|---|---|---|---|
| 1788057301 | 24.44° C | 99% | 1002 hPa | 0 mm | - | 245 W/m² | - |
| 1788056701 | 24.44° C | 99% | 1002.2 hPa | 0 mm | - | 257 W/m² | - |
| 1788056101 | 24.44° C | 99% | 1002 hPa | 0 mm | - | 223 W/m² | - |
| 1788055501 | 24.44° C | 99% | 1002.1 hPa | 0 mm | - | 276 W/m² | - |
| 1788054901 | 24.44° C | 99% | 1001.9 hPa | 0 mm | - | 190 W/m² | - |
| 1788054301 | 23.89° C | 99% | 1002.5 hPa | 0 mm | - | 250 W/m² | - |
| 1788053701 | 23.89° C | 99% | 1002.5 hPa | 0 mm | - | 223 W/m² | - |
| 1788053101 | 23.33° C | 99% | 1002.3 hPa | 0 mm | - | 211 W/m² | - |
| 1788052501 | 23.33° C | 99% | 1002.2 hPa | 0 mm | - | 162 W/m² | - |
| 1788051901 | 23.33° C | 99% | 1002.3 hPa | 0 mm | - | 183 W/m² | - |
| 1788051301 | 23.33° C | 99% | 1002.8 hPa | 0 mm | - | 149 W/m² | - |
| 1788050701 | 22.78° C | 99% | 1002.8 hPa | 0 mm | - | 123 W/m² | - |
| 1788050101 | 22.78° C | 99% | 1002.5 hPa | 0 mm | - | 138 W/m² | - |
| 1788049501 | 22.78° C | 99% | 1002.3 hPa | 0 mm | - | 127 W/m² | - |
| 1788048901 | 22.22° C | 99% | 1002 hPa | 0 mm | - | 94 W/m² | - |
| 1788048301 | 22.22° C | 99% | 1001.7 hPa | 0 mm | - | 75 W/m² | - |
| 1788047701 | 22.22° C | 99% | 1001.7 hPa | 0 mm | - | 63 W/m² | - |
| 1788047101 | 22.22° C | 99% | 1001.6 hPa | 0 mm | - | 44 W/m² | - |
| 1788046501 | 22.22° C | 99% | 1001.7 hPa | 0 mm | - | 29 W/m² | - |
| 1788045901 | 22.22° C | 99% | 1001.7 hPa | 0 mm | - | 17 W/m² | - |
| 1788045301 | 22.22° C | 99% | 1001.6 hPa | 0 mm | - | 7 W/m² | - |
| 1788044701 | 21.67° C | 99% | 1001.5 hPa | 0 mm | - | 2 W/m² | - |
| 1788044101 | 22.22° C | 99% | 1001.5 hPa | 0 mm | - | 2 W/m² | - |
| 1788043501 | 22.22° C | 99% | 1001.5 hPa | 0 mm | - | 2 W/m² | - |
| 1788042901 | 22.22° C | 99% | 1001.4 hPa | 0 mm | - | 2 W/m² | - |
* Rain latest hour (hover to see other rain measurements)
** Current wind speed in m/s (hover to see current wind gust speed)